[[{"header":{"parameterUnit":"m.s-1","parameterCategory":1,"la1":30.2992,"la2":30.254,"lo1":-89.0895,"lo2":-89.0443,"dy":0.0025,"dx":0.0025,"nx":19,"ny":19,"refTime":"2026-03-11T21:00:00:Z","depth":0,"parameterNumber":2,"parameterNumberName":"U-component_of_WINDS"},"data":[0,0,0,-4.0964,-4.097,-4.1194,-4.1195,-4.1529,-4.1533,0,0,0,0,0,0,0,0,0,0,0,-4.0925,-4.0928,-4.0964,-4.097,-4.1194,-4.1195,-4.1529,-4.1533,0,0,0,0,0,0,0,0,0,0,0,-4.0924,-4.0927,-4.0931,-4.0971,-4.1194,-4.1195,-4.1528,-4.1342,0,0,0,0,0,0,0,0,0,0,-4.1117,-4.1106,-4.0927,-4.0932,-4.0973,-4.1194,-4.1195,-4.1333,-4.1354,-4.1448,0,-4.1536,0,-4.154,-4.1558,-4.1559,0,0,0,-4.0951,-4.1089,-4.1124,-4.0932,-4.0975,-4.1194,-4.1088,-4.1344,-4.1368,-4.1476,-4.1541,-4.1552,-4.1546,-4.156,-4.1562,-4.2163,-4.2166,0,0,-4.0939,-4.0981,-4.1108,-4.1141,-4.1108,-4.1081,-4.1095,-4.1358,-4.1432,-4.1542,-4.1559,-4.1551,-4.1563,-4.1566,-4.2159,-4.2164,0,0,0,-4.0916,-4.0973,-4.1001,-4.1129,-4.1165,-4.1088,-4.1104,-4.142,-4.1426,-4.1562,-4.1555,-4.1565,-4.157,-4.2155,-4.2161,-4.2388,0,0,0,-4.0908,-4.096,-4.0997,-4.1025,-4.1162,-4.1296,-4.1162,-4.1407,-4.1436,-4.1553,-4.1565,-4.1573,-4.2151,-4.2158,-4.2372,-4.249,0,0,0,-4.0901,-4.0959,-4.1,-4.1027,-4.1124,-4.129,-4.131,-4.1412,-4.1433,-4.156,-4.1575,-4.2148,-4.2157,-4.2359,-4.2467,-4.2662,0,0,0,-4.0908,-4.1199,-4.1004,-4.1327,-4.1123,-4.1427,-4.1308,-4.1532,-4.1668,-4.1567,-4.2152,-4.216,-4.2355,-4.2453,-4.2648,-4.2837,-4.2918,0,0,-4.1299,-4.1248,-4.1434,-4.1266,-4.1616,-4.1389,-4.1772,-4.1857,-4.1831,-4.2054,-4.2068,-4.2377,-4.2466,-4.2659,-4.3351,-4.3417,0,0,0,-4.1572,-4.1707,-4.179,-4.192,-4.199,-4.2061,-4.2081,-4.2112,-4.2299,-4.1954,-4.2496,-4.2548,-4.266,-4.2748,-4.2804,-4.2898,-4.2202,-4.2201,-4.22,-4.2191,-4.2139,-4.2445,-4.2421,-4.2548,-4.2565,-4.2665,-4.271,-4.2622,-4.2751,-4.2819,-4.3245,-4.335,-4.3391,-4.3491,-4.291,-4.2911,-4.2912,-4.2912,-4.2763,-4.2948,-4.282,-4.3072,-4.3016,-4.3227,-4.3254,-4.3184,-4.3374,-4.319,-4.3286,-4.3094,-4.3464,-4.3549,-4.2929,-4.2926,-4.2924,-4.2922,-4.2921,-4.3167,-4.3247,-4.3277,-4.3459,-4.3605,-4.3568,-4.3756,-4.3698,-4.3644,-4.3739,-4.3806,-4.3802,-4.3794,-4.3774,-4.3775,-4.3777,-4.3778,-4.3779,-4.378,-4.3576,-4.3603,-4.3767,-4.3864,-4.3939,-4.4031,-4.4049,-4.4122,-4.4189,-4.4132,-4.4132,-4.4034,-4.3508,-4.338,-4.3803,-4.3799,-4.3796,-4.3794,-4.3792,-4.4184,-4.4036,-4.4291,-4.4367,-4.4475,-4.4625,-4.4545,-4.4699,-4.4751,-4.4846,-4.4725,-4.4344,-4.4288,-4.4244,-4.4138,-4.4732,-4.4732,-4.4732,-4.4732,-4.4529,-4.4492,-4.4739,-4.4864,-4.4978,-4.4932,-4.5223,-4.524,-4.5234,-4.5263,-4.5167,-4.5019,-4.4976,-4.4946,-4.4887,-4.4787,-4.5533,-4.5534,-4.5535,-4.4901,-4.4873,-4.5133,-4.5122,-4.5201,-4.5272,-4.5545,-4.5695,-4.5657,-4.5566,-4.5285,-4.5252,-4.5012,-4.4936,-4.4846,-4.4754,-4.457,0,0]},{"header":{"parameterUnit":"m.s-1","parameterCategory":1,"la1":30.2992,"la2":30.254,"lo1":-89.0895,"lo2":-89.0443,"dy":0.0025,"dx":0.0025,"nx":19,"ny":19,"refTime":"2026-03-11T21:00:00:Z","depth":0,"parameterNumber":3,"parameterNumberName":"V-component_of_WINDS"},"data":[0,0,0,-4.1739,-4.1742,-4.1871,-4.1871,-4.2043,-4.2045,0,0,0,0,0,0,0,0,0,0,0,-4.1708,-4.1709,-4.1739,-4.1742,-4.1871,-4.1871,-4.2043,-4.2045,0,0,0,0,0,0,0,0,0,0,0,-4.1707,-4.1709,-4.1711,-4.1743,-4.1871,-4.1871,-4.2042,-4.1942,0,0,0,0,0,0,0,0,0,0,-4.1815,-4.1795,-4.1709,-4.1711,-4.1743,-4.1871,-4.1871,-4.1937,-4.1948,-4.1989,0,-4.2029,0,-4.204,-4.2057,-4.2058,0,0,0,-4.1736,-4.1786,-4.1814,-4.1711,-4.1745,-4.187,-4.1811,-4.1943,-4.1956,-4.2004,-4.2031,-4.2037,-4.2043,-4.2058,-4.2059,-4.2315,-4.2317,0,0,-4.1729,-4.1735,-4.1805,-4.1822,-4.1806,-4.1807,-4.1815,-4.1951,-4.198,-4.2032,-4.2041,-4.2045,-4.2059,-4.2061,-4.2314,-4.2316,0,0,0,-4.1713,-4.173,-4.1755,-4.1816,-4.1838,-4.1811,-4.182,-4.1974,-4.1982,-4.2043,-4.2047,-4.206,-4.2063,-4.2312,-4.2315,-4.2392,0,0,0,-4.1708,-4.172,-4.1752,-4.1757,-4.1836,-4.1909,-4.1841,-4.1973,-4.1988,-4.2047,-4.206,-4.2064,-4.2311,-4.2313,-4.2387,-4.2428,0,0,0,-4.1697,-4.1719,-4.174,-4.1757,-4.1813,-4.1906,-4.1922,-4.1976,-4.1991,-4.2058,-4.2065,-4.231,-4.2313,-4.2382,-4.242,-4.2496,0,0,0,-4.1686,-4.1809,-4.1742,-4.1879,-4.1812,-4.1955,-4.1921,-4.2027,-4.2094,-4.2061,-4.2311,-4.2314,-4.238,-4.2415,-4.2491,-4.256,-4.259,0,0,-4.1844,-4.1828,-4.1908,-4.1852,-4.2008,-4.1934,-4.2101,-4.2157,-4.2157,-4.2262,-4.2268,-4.2389,-4.2419,-4.2495,-4.2758,-4.2782,0,0,0,-4.196,-4.2017,-4.2057,-4.2122,-4.2167,-4.2208,-4.2238,-4.2257,-4.2346,-4.2213,-4.2437,-4.2455,-4.2499,-4.2532,-4.2552,-4.2588,-4.233,-4.233,-4.2329,-4.219,-4.2184,-4.2315,-4.2324,-4.2387,-4.2414,-4.2463,-4.2494,-4.247,-4.2523,-4.2554,-4.2714,-4.2753,-4.2768,-4.2806,-4.2591,-4.2591,-4.2591,-4.2592,-4.2418,-4.2498,-4.2462,-4.2576,-4.2568,-4.2663,-4.2693,-4.2672,-4.2757,-4.2691,-4.273,-4.2657,-4.2795,-4.2827,-4.2597,-4.2596,-4.2596,-4.2595,-4.2595,-4.2568,-4.2605,-4.2627,-4.2717,-4.2786,-4.279,-4.2873,-4.2862,-4.2853,-4.2891,-4.2921,-4.2919,-4.2915,-4.2906,-4.2906,-4.2907,-4.2908,-4.2908,-4.2908,-4.2714,-4.2736,-4.2809,-4.2865,-4.2903,-4.2952,-4.2978,-4.3015,-4.3052,-4.3037,-4.3037,-4.3006,-4.281,-4.276,-4.2917,-4.2915,-4.2914,-4.2913,-4.2913,-4.2946,-4.2891,-4.3003,-4.3041,-4.3105,-4.3172,-4.3157,-4.3231,-4.326,-4.33,-4.326,-4.3118,-4.3101,-4.3084,-4.3043,-4.3263,-4.3263,-4.3263,-4.3263,-4.3071,-4.3061,-4.3172,-4.3233,-4.3291,-4.3288,-4.3411,-4.3431,-4.3443,-4.3459,-4.3426,-4.337,-4.3354,-4.3346,-4.3324,-4.3285,-4.3562,-4.3562,-4.3563,-4.3212,-4.3207,-4.3316,-4.3328,-4.3375,-4.3416,-4.353,-4.3599,-4.3601,-4.3574,-4.3471,-4.3458,-4.3368,-4.334,-4.3311,-4.3277,-4.3206,0,0]}]]